| time (UTC) | temp F | wind direction | speed MPH | gust MPH | rain 1hr in | rain 24hr in | rain mn in | humidity % | barometer mb |
| 20260508170009 | 66 | 135 | 1.0 | 2.0 | 0.00 | 0.00 | 0.00 | 61 | 1008.9 |
| 20260508165507 | 65 | 148 | 2.0 | 3.0 | 0.00 | 0.00 | 0.00 | 60 | 1008.9 |
| 20260508165004 | 65 | 99 | 1.0 | 2.0 | 0.00 | 0.00 | 0.00 | 60 | 1009.1 |
| 20260508164459 | 66 | 90 | 2.0 | 2.0 | 0.00 | 0.00 | 0.00 | 59 | 1009.3 |
| 20260508163956 | 64 | 157 | 1.0 | 2.0 | 0.00 | 0.00 | 0.00 | 60 | 1009.3 |
| 20260508163454 | 64 | 164 | 2.0 | 3.0 | 0.00 | 0.00 | 0.00 | 61 | 1009.3 |
| 20260508162949 | 63 | 131 | 1.0 | 2.0 | 0.00 | 0.00 | 0.00 | 61 | 1009.7 |
| 20260508162447 | 64 | 204 | 1.0 | 3.0 | 0.00 | 0.00 | 0.00 | 62 | 1009.7 |
| 20260508161944 | 64 | 97 | 1.0 | 2.0 | 0.00 | 0.00 | 0.00 | 62 | 1009.6 |
| 20260508161441 | 63 | 98 | 1.0 | 1.0 | 0.00 | 0.00 | 0.00 | 62 | 1009.5 |
| 20260508160938 | 63 | 180 | 1.0 | 3.0 | 0.00 | 0.00 | 0.00 | 61 | 1009.8 |
| 20260508160438 | 62 | 114 | 1.0 | 2.0 | 0.00 | 0.00 | 0.00 | 64 | 1009.8 |
| 20260508155933 | 63 | 142 | 3.0 | 5.0 | 0.00 | 0.00 | 0.00 | 64 | 1009.6 |
| 20260508155430 | 64 | 188 | 2.0 | 2.0 | 0.00 | 0.00 | 0.00 | 61 | 1009.6 |
| 20260508154927 | 63 | 83 | 0.0 | 1.0 | 0.00 | 0.00 | 0.00 | 61 | 1009.7 |
| 20260508154424 | 62 | 245 | 2.0 | 2.0 | 0.00 | 0.00 | 0.00 | 65 | 1009.8 |
| 20260508153921 | 63 | 114 | 0.0 | 1.0 | 0.00 | 0.00 | 0.00 | 63 | 1010.0 |
| 20260508153418 | 61 | 74 | 2.0 | 2.0 | 0.00 | 0.00 | 0.00 | 65 | 1010.0 |
| 20260508152914 | 61 | 111 | 1.0 | 2.0 | 0.00 | 0.00 | 0.00 | 65 | 1010.0 |
| 20260508152411 | 61 | 230 | 2.0 | 5.0 | 0.00 | 0.00 | 0.00 | 68 | 1010.0 |
| 20260508151908 | 61 | 129 | 1.0 | 3.0 | 0.00 | 0.00 | 0.00 | 67 | 1010.1 |
| 20260508151404 | 61 | 142 | 1.0 | 2.0 | 0.00 | 0.00 | 0.00 | 65 | 1010.0 |
| 20260508150901 | 59 | 260 | 2.0 | 3.0 | 0.00 | 0.00 | 0.00 | 68 | 1010.0 |
| 20260508150357 | 59 | 132 | 0.0 | 2.0 | 0.00 | 0.00 | 0.00 | 69 | 1010.0 |
| 20260508145854 | 59 | 108 | 1.0 | 3.0 | 0.00 | 0.00 | 0.00 | 68 | 1010.4 |
| 20260508145350 | 59 | 151 | 1.0 | 2.0 | 0.00 | 0.00 | 0.00 | 68 | 1010.1 |
| 20260508144847 | 58 | 155 | 1.0 | 1.0 | 0.00 | 0.00 | 0.00 | 69 | 1010.4 |
| 20260508144345 | 58 | 194 | 0.0 | 2.0 | 0.00 | 0.00 | 0.00 | 70 | 1010.3 |
| 20260508143842 | 59 | 189 | 3.0 | 3.0 | 0.00 | 0.00 | 0.00 | 66 | 1010.5 |
| 20260508143339 | 59 | 81 | 0.0 | 1.0 | 0.00 | 0.00 | 0.00 | 66 | 1010.4 |
| 20260508142836 | 59 | 108 | 0.0 | 1.0 | 0.00 | 0.00 | 0.00 | 66 | 1010.5 |
| 20260508142332 | 58 | 79 | 1.0 | 1.0 | 0.00 | 0.00 | 0.00 | 65 | 1010.4 |
| 20260508141829 | 56 | 101 | 0.0 | 1.0 | 0.00 | 0.00 | 0.00 | 69 | 1010.3 |
| 20260508141326 | 56 | 117 | 0.0 | 1.0 | 0.00 | 0.00 | 0.00 | 71 | 1010.4 |
| 20260508140823 | 56 | 95 | 2.0 | 2.0 | 0.00 | 0.00 | 0.00 | 69 | 1010.5 |
| 20260508140320 | 55 | 80 | 0.0 | 1.0 | 0.00 | 0.00 | 0.00 | 71 | 1010.5 |
| 20260508135816 | 55 | 63 | 1.0 | 2.0 | 0.00 | 0.00 | 0.00 | 71 | 1010.7 |
| 20260508135313 | 54 | 104 | 1.0 | 2.0 | 0.00 | 0.00 | 0.00 | 72 | 1010.4 |
| 20260508134808 | 53 | 87 | 0.0 | 2.0 | 0.00 | 0.00 | 0.00 | 77 | 1010.7 |
| 20260508134305 | 53 | 96 | 0.0 | 1.0 | 0.00 | 0.00 | 0.00 | 79 | 1010.3 |
| 20260508133802 | 52 | 186 | 1.0 | 3.0 | 0.00 | 0.00 | 0.00 | 80 | 1010.5 |
| 20260508133300 | 52 | 97 | 0.0 | 1.0 | 0.00 | 0.00 | 0.00 | 81 | 1010.5 |
| 20260508132757 | 51 | 142 | 0.0 | 1.0 | 0.00 | 0.00 | 0.00 | 83 | 1010.4 |
| 20260508132254 | 51 | 76 | 1.0 | 1.0 | 0.00 | 0.00 | 0.00 | 85 | 1010.5 |
| 20260508131750 | 50 | 94 | 1.0 | 1.0 | 0.00 | 0.00 | 0.00 | 86 | 1010.4 |
| 20260508131247 | 49 | 88 | 1.0 | 1.0 | 0.00 | 0.00 | 0.00 | 87 | 1010.4 |
| 20260508130743 | 49 | 85 | 0.0 | 1.0 | 0.00 | 0.00 | 0.00 | 88 | 1010.3 |
| 20260508130241 | 48 | 89 | 0.0 | 2.0 | 0.00 | 0.00 | 0.00 | 88 | 1010.3 |
| 20260508125736 | 48 | 92 | 1.0 | 1.0 | 0.00 | 0.00 | 0.00 | 90 | 1010.5 |
| 20260508125232 | 48 | 97 | 1.0 | 1.0 | 0.00 | 0.00 | 0.00 | 90 | 1010.3 |
| 20260508124731 | 47 | 102 | 1.0 | 3.0 | 0.00 | 0.00 | 0.00 | 90 | 1010.7 |
| 20260508124228 | 47 | 85 | 1.0 | 1.0 | 0.00 | 0.00 | 0.00 | 92 | 1010.3 |
| 20260508123726 | 46 | 87 | 1.0 | 1.0 | 0.00 | 0.00 | 0.00 | 93 | 1010.2 |
| 20260508123224 | 46 | 122 | 1.0 | 2.0 | 0.00 | 0.00 | 0.00 | 95 | 1010.3 |
| 20260508122719 | 45 | 86 | 0.0 | 1.0 | 0.00 | 0.00 | 0.00 | 96 | 1010.4 |
| 20260508122217 | 45 | 85 | 0.0 | 1.0 | 0.00 | 0.00 | 0.00 | 96 | 1010.5 |
| 20260508121714 | 44 | 98 | 0.0 | 1.0 | 0.00 | 0.00 | 0.00 | 97 | 1010.7 |
| 20260508121213 | 44 | 108 | 0.0 | 0.0 | 0.00 | 0.00 | 0.00 | 98 | 1010.7 |
| 20260508120709 | 44 | 80 | 0.0 | 1.0 | 0.00 | 0.00 | 0.00 | 98 | 1010.4 |
| 20260508120208 | 43 | 67 | 1.0 | 1.0 | 0.00 | 0.00 | 0.00 | 98 | 1010.4 |
| 20260508115705 | 43 | 61 | 0.0 | 3.0 | 0.00 | 0.00 | 0.00 | 99 | 1010.3 |
| 20260508115202 | 43 | 80 | 0.0 | 0.0 | 0.00 | 0.00 | 0.00 | 99 | 1010.4 |
| 20260508114659 | 43 | 88 | 0.0 | 0.0 | 0.00 | 0.00 | 0.00 | 99 | 1010.3 |
| 20260508114155 | 43 | 92 | 0.0 | 0.0 | 0.00 | 0.00 | 0.00 | 99 | 1010.3 |
| 20260508113652 | 43 | 89 | 0.0 | 0.0 | 0.00 | 0.00 | 0.00 | 99 | 1010.3 |
| 20260508113151 | 43 | 90 | 0.0 | 0.0 | 0.00 | 0.00 | 0.00 | 99 | 1010.5 |
| 20260508112646 | 43 | 91 | 0.0 | 0.0 | 0.00 | 0.00 | 0.00 | 99 | 1010.2 |
| 20260508112143 | 43 | 89 | 0.0 | 0.0 | 0.00 | 0.00 | 0.00 | 99 | 1010.2 |
| 20260508111640 | 42 | 93 | 0.0 | 0.0 | 0.00 | 0.00 | 0.00 | 99 | 1010.2 |
| 20260508111137 | 42 | 97 | 0.0 | 0.0 | 0.00 | 0.00 | 0.00 | 99 | 1010.3 |
| 20260508110635 | 42 | 90 | 0.0 | 0.0 | 0.00 | 0.00 | 0.00 | 99 | 1010.1 |
| 20260508110131 | 42 | 89 | 0.0 | 0.0 | 0.00 | 0.00 | 0.00 | 99 | 1010.0 |
| 20260508105626 | 42 | 91 | 0.0 | 0.0 | 0.00 | 0.00 | 0.00 | 99 | 1010.0 |
| 20260508105123 | 41 | 82 | 0.0 | 0.0 | 0.00 | 0.00 | 0.00 | 99 | 1009.9 |
| 20260508104621 | 41 | 86 | 0.0 | 0.0 | 0.00 | 0.00 | 0.00 | 99 | 1010.1 |
| 20260508104117 | 41 | 84 | 0.0 | 0.0 | 0.00 | 0.00 | 0.00 | 99 | 1009.9 |
| 20260508103614 | 41 | 92 | 0.0 | 0.0 | 0.00 | 0.00 | 0.00 | 99 | 1010.5 |
| 20260508103112 | 40 | 99 | 0.0 | 0.0 | 0.00 | 0.00 | 0.00 | 99 | 1010.2 |
| 20260508102609 | 40 | 100 | 0.0 | 0.0 | 0.00 | 0.00 | 0.00 | 99 | 1010.1 |
| 20260508102107 | 40 | 98 | 0.0 | 0.0 | 0.00 | 0.00 | 0.00 | 99 | 1010.4 |
| 20260508101604 | 40 | 118 | 0.0 | 0.0 | 0.00 | 0.00 | 0.00 | 99 | 1010.4 |
| 20260508101101 | 40 | 90 | 0.0 | 0.0 | 0.00 | 0.00 | 0.00 | 99 | 1010.3 |
| 20260508100559 | 40 | 86 | 0.0 | 0.0 | 0.00 | 0.00 | 0.00 | 99 | 1010.2 |
| 20260508100055 | 40 | 87 | 0.0 | 0.0 | 0.00 | 0.00 | 0.00 | 99 | 1010.1 |
| 20260508095553 | 39 | 83 | 0.0 | 0.0 | 0.00 | 0.00 | 0.00 | 99 | 1010.3 |
| 20260508095049 | 39 | 97 | 0.0 | 0.0 | 0.00 | 0.00 | 0.00 | 99 | 1010.3 |
| 20260508094547 | 39 | 97 | 0.0 | 0.0 | 0.00 | 0.00 | 0.00 | 99 | 1010.2 |
| 20260508094044 | 39 | 96 | 0.0 | 0.0 | 0.00 | 0.00 | 0.00 | 99 | 1010.4 |
| 20260508093541 | 39 | 100 | 0.0 | 0.0 | 0.00 | 0.00 | 0.00 | 99 | 1010.4 |
| 20260508093038 | 39 | 102 | 0.0 | 0.0 | 0.00 | 0.00 | 0.00 | 99 | 1010.4 |
| 20260508092535 | 39 | 102 | 0.0 | 0.0 | 0.00 | 0.00 | 0.00 | 98 | 1010.4 |
| 20260508092034 | 39 | 102 | 0.0 | 0.0 | 0.00 | 0.00 | 0.00 | 98 | 1010.4 |
| 20260508091531 | 40 | 116 | 0.0 | 0.0 | 0.00 | 0.00 | 0.00 | 98 | 1010.4 |
| 20260508091028 | 40 | 96 | 0.0 | 0.0 | 0.00 | 0.00 | 0.00 | 98 | 1010.3 |
| 20260508090526 | 40 | 85 | 0.0 | 0.0 | 0.00 | 0.00 | 0.00 | 98 | 1010.3 |
| 20260508090022 | 40 | 94 | 0.0 | 0.0 | 0.00 | 0.00 | 0.00 | 97 | 1010.5 |
| 20260508085519 | 40 | 95 | 0.0 | 0.0 | 0.00 | 0.00 | 0.00 | 97 | 1010.5 |
| 20260508085016 | 40 | 95 | 0.0 | 0.0 | 0.00 | 0.00 | 0.00 | 97 | 1010.7 |
| 20260508084513 | 40 | 101 | 0.0 | 0.0 | 0.00 | 0.00 | 0.00 | 97 | 1010.6 |
| 20260508084010 | 40 | 105 | 0.0 | 0.0 | 0.00 | 0.00 | 0.00 | 97 | 1010.6 |
| 20260508083507 | 40 | 103 | 0.0 | 0.0 | 0.00 | 0.00 | 0.00 | 97 | 1010.6 |
| 20260508083003 | 40 | 96 | 0.0 | 0.0 | 0.00 | 0.00 | 0.00 | 96 | 1010.7 |
| 20260508082459 | 41 | 90 | 0.0 | 0.0 | 0.00 | 0.00 | 0.00 | 96 | 1010.5 |
| 20260508081957 | 41 | 79 | 0.0 | 0.0 | 0.00 | 0.00 | 0.00 | 96 | 1010.5 |
| 20260508081454 | 41 | 116 | 0.0 | 0.0 | 0.00 | 0.00 | 0.00 | 96 | 1010.7 |
| 20260508080950 | 42 | 96 | 0.0 | 0.0 | 0.00 | 0.00 | 0.00 | 96 | 1010.7 |
| 20260508080449 | 42 | 81 | 0.0 | 0.0 | 0.00 | 0.00 | 0.00 | 96 | 1010.7 |
| 20260508075945 | 41 | 88 | 0.0 | 0.0 | 0.00 | 0.00 | 0.00 | 96 | 1010.8 |
| 20260508075442 | 41 | 94 | 0.0 | 0.0 | 0.00 | 0.00 | 0.00 | 96 | 1010.7 |
| 20260508074939 | 41 | 91 | 0.0 | 0.0 | 0.00 | 0.00 | 0.00 | 96 | 1010.5 |
| 20260508074437 | 41 | 95 | 0.0 | 0.0 | 0.00 | 0.00 | 0.00 | 96 | 1010.8 |
| 20260508073934 | 41 | 90 | 0.0 | 0.0 | 0.00 | 0.00 | 0.00 | 96 | 1010.8 |
| 20260508073431 | 42 | 90 | 0.0 | 0.0 | 0.00 | 0.00 | 0.00 | 96 | 1010.9 |
| 20260508072928 | 42 | 95 | 0.0 | 0.0 | 0.00 | 0.00 | 0.00 | 96 | 1010.9 |
| 20260508072424 | 42 | 96 | 0.0 | 0.0 | 0.00 | 0.00 | 0.00 | 96 | 1010.9 |
| 20260508071922 | 42 | 127 | 0.0 | 0.0 | 0.00 | 0.00 | 0.00 | 95 | 1011.0 |
| 20260508071420 | 42 | 91 | 0.0 | 0.0 | 0.00 | 0.00 | 0.00 | 95 | 1011.0 |
| 20260508070917 | 42 | 95 | 0.0 | 0.0 | 0.00 | 0.00 | 0.00 | 95 | 1011.1 |
| 20260508070415 | 42 | 100 | 0.0 | 0.0 | 0.00 | 0.00 | 0.00 | 95 | 1011.1 |
| 20260508065912 | 42 | 118 | 0.0 | 0.0 | 0.00 | 0.00 | 0.00 | 95 | 1010.9 |
| 20260508065410 | 42 | 100 | 0.0 | 0.0 | 0.00 | 0.00 | 0.00 | 94 | 1011.2 |
| 20260508064908 | 43 | 92 | 0.0 | 0.0 | 0.00 | 0.00 | 0.00 | 94 | 1011.1 |
| 20260508064405 | 43 | 91 | 0.0 | 0.0 | 0.00 | 0.00 | 0.00 | 93 | 1010.8 |
| 20260508063903 | 43 | 90 | 0.0 | 0.0 | 0.00 | 0.00 | 0.00 | 93 | 1011.2 |
| 20260508063401 | 43 | 88 | 0.0 | 0.0 | 0.00 | 0.00 | 0.00 | 93 | 1011.0 |
| 20260508062857 | 43 | 81 | 0.0 | 0.0 | 0.00 | 0.00 | 0.00 | 93 | 1010.8 |
| 20260508062355 | 43 | 94 | 0.0 | 0.0 | 0.00 | 0.00 | 0.00 | 92 | 1010.9 |
| 20260508061852 | 43 | 103 | 0.0 | 0.0 | 0.00 | 0.00 | 0.00 | 92 | 1010.9 |
| 20260508061349 | 44 | 97 | 0.0 | 0.0 | 0.00 | 0.00 | 0.00 | 91 | 1011.2 |
| 20260508060846 | 44 | 86 | 0.0 | 0.0 | 0.00 | 0.00 | 0.00 | 91 | 1010.9 |
| 20260508060344 | 44 | 93 | 0.0 | 0.0 | 0.00 | 0.00 | 0.00 | 90 | 1011.0 |
| 20260508055838 | 44 | 91 | 0.0 | 0.0 | 0.00 | 0.00 | 0.00 | 90 | 1011.1 |
| 20260508055336 | 45 | 90 | 0.0 | 0.0 | 0.00 | 0.00 | 0.00 | 89 | 1011.0 |
| 20260508054832 | 45 | 109 | 0.0 | 0.0 | 0.00 | 0.00 | 0.00 | 88 | 1010.7 |
| 20260508054330 | 46 | 98 | 0.0 | 0.0 | 0.00 | 0.00 | 0.00 | 88 | 1010.6 |
| 20260508053827 | 46 | 85 | 0.0 | 0.0 | 0.00 | 0.00 | 0.00 | 88 | 1010.9 |
| 20260508053324 | 46 | 90 | 0.0 | 0.0 | 0.00 | 0.00 | 0.00 | 88 | 1010.8 |
| 20260508052821 | 46 | 79 | 0.0 | 0.0 | 0.00 | 0.00 | 0.00 | 87 | 1010.6 |
| 20260508052319 | 46 | 103 | 0.0 | 0.0 | 0.00 | 0.00 | 0.00 | 87 | 1010.8 |
| 20260508051815 | 46 | 104 | 0.0 | 0.0 | 0.00 | 0.00 | 0.00 | 87 | 1010.6 |
| 20260508051310 | 46 | 110 | 0.0 | 0.0 | 0.00 | 0.00 | 0.00 | 87 | 1010.6 |
| 20260508050807 | 46 | 106 | 0.0 | 0.0 | 0.00 | 0.00 | 0.00 | 86 | 1010.7 |
| 20260508050304 | 46 | 100 | 0.0 | 0.0 | 0.00 | 0.00 | 0.00 | 86 | 1010.6 |
| 20260508045759 | 47 | 91 | 0.0 | 0.0 | 0.00 | 0.01 | 0.01 | 85 | 1010.5 |
| 20260508045257 | 47 | 92 | 0.0 | 0.0 | 0.00 | 0.01 | 0.01 | 84 | 1010.8 |
| 20260508044755 | 47 | 91 | 0.0 | 0.0 | 0.00 | 0.01 | 0.01 | 84 | 1010.6 |
| 20260508044251 | 48 | 91 | 0.0 | 0.0 | 0.00 | 0.01 | 0.01 | 83 | 1010.6 |
| 20260508043747 | 48 | 99 | 0.0 | 0.0 | 0.00 | 0.01 | 0.01 | 82 | 1010.6 |
| 20260508043245 | 48 | 104 | 0.0 | 0.0 | 0.00 | 0.01 | 0.01 | 81 | 1010.4 |
| 20260508042741 | 48 | 95 | 0.0 | 0.0 | 0.00 | 0.01 | 0.01 | 80 | 1010.5 |
| 20260508042239 | 48 | 92 | 0.0 | 0.0 | 0.00 | 0.01 | 0.01 | 80 | 1010.3 |
| 20260508041735 | 48 | 89 | 0.0 | 0.0 | 0.00 | 0.01 | 0.01 | 80 | 1010.4 |
| 20260508041232 | 48 | 96 | 0.0 | 0.0 | 0.00 | 0.01 | 0.01 | 79 | 1010.3 |
| 20260508040729 | 49 | 110 | 0.0 | 0.0 | 0.00 | 0.01 | 0.01 | 78 | 1010.4 |
| 20260508040226 | 49 | 107 | 0.0 | 1.0 | 0.00 | 0.01 | 0.01 | 77 | 1010.4 |
| 20260508035723 | 49 | 109 | 0.0 | 1.0 | 0.00 | 0.01 | 0.01 | 78 | 1010.5 |
| 20260508035221 | 48 | 107 | 0.0 | 0.0 | 0.00 | 0.01 | 0.01 | 78 | 1010.2 |
| 20260508034717 | 48 | 129 | 1.0 | 2.0 | 0.00 | 0.01 | 0.01 | 79 | 1010.0 |
| 20260508034215 | 47 | 101 | 0.0 | 0.0 | 0.00 | 0.01 | 0.01 | 81 | 1010.3 |
| 20260508033711 | 47 | 97 | 0.0 | 0.0 | 0.00 | 0.01 | 0.01 | 82 | 1010.2 |
| 20260508033210 | 47 | 99 | 0.0 | 0.0 | 0.00 | 0.01 | 0.01 | 81 | 1010.0 |
| 20260508032707 | 48 | 106 | 0.0 | 0.0 | 0.00 | 0.01 | 0.01 | 81 | 1009.9 |
| 20260508032204 | 48 | 103 | 0.0 | 0.0 | 0.00 | 0.01 | 0.01 | 78 | 1010.1 |
| 20260508031701 | 48 | 102 | 0.0 | 0.0 | 0.00 | 0.01 | 0.01 | 79 | 1009.9 |
| 20260508031157 | 48 | 93 | 0.0 | 0.0 | 0.00 | 0.01 | 0.01 | 80 | 1010.1 |
| 20260508030653 | 48 | 90 | 0.0 | 0.0 | 0.00 | 0.01 | 0.01 | 79 | 1010.0 |
| 20260508030151 | 49 | 81 | 0.0 | 1.0 | 0.00 | 0.01 | 0.01 | 77 | 1010.1 |
| 20260508025647 | 48 | 151 | 1.0 | 1.0 | 0.00 | 0.01 | 0.01 | 80 | 1010.0 |
| 20260508025144 | 47 | 103 | 0.0 | 0.0 | 0.00 | 0.01 | 0.01 | 81 | 1009.8 |
| 20260508024640 | 47 | 113 | 0.0 | 0.0 | 0.00 | 0.01 | 0.01 | 83 | 1010.0 |
| 20260508024138 | 48 | 105 | 0.0 | 0.0 | 0.00 | 0.01 | 0.01 | 82 | 1009.9 |
| 20260508023633 | 48 | 106 | 0.0 | 0.0 | 0.00 | 0.01 | 0.01 | 81 | 1009.8 |
| 20260508023132 | 48 | 108 | 0.0 | 0.0 | 0.00 | 0.01 | 0.01 | 81 | 1010.0 |
| 20260508022627 | 48 | 94 | 0.0 | 0.0 | 0.00 | 0.01 | 0.01 | 80 | 1010.0 |
| 20260508022124 | 49 | 94 | 0.0 | 0.0 | 0.00 | 0.01 | 0.01 | 79 | 1009.9 |
| 20260508021620 | 49 | 92 | 0.0 | 0.0 | 0.00 | 0.01 | 0.01 | 79 | 1009.8 |
| 20260508021116 | 49 | 92 | 0.0 | 0.0 | 0.00 | 0.01 | 0.01 | 79 | 1009.7 |
| 20260508020614 | 49 | 92 | 0.0 | 0.0 | 0.00 | 0.01 | 0.01 | 79 | 1009.6 |
| 20260508020111 | 49 | 95 | 0.0 | 0.0 | 0.00 | 0.01 | 0.01 | 78 | 1009.6 |
| 20260508015609 | 49 | 95 | 0.0 | 0.0 | 0.00 | 0.01 | 0.01 | 77 | 1009.5 |
| 20260508015105 | 49 | 95 | 0.0 | 0.0 | 0.00 | 0.01 | 0.01 | 77 | 1009.5 |
| 20260508014601 | 50 | 95 | 0.0 | 0.0 | 0.00 | 0.01 | 0.01 | 76 | 1009.3 |
| 20260508014058 | 50 | 96 | 0.0 | 0.0 | 0.00 | 0.01 | 0.01 | 75 | 1009.4 |
| 20260508013554 | 50 | 101 | 0.0 | 0.0 | 0.00 | 0.01 | 0.01 | 75 | 1009.2 |
| 20260508013051 | 50 | 95 | 0.0 | 0.0 | 0.00 | 0.01 | 0.01 | 75 | 1009.0 |
| 20260508012549 | 51 | 104 | 0.0 | 0.0 | 0.00 | 0.01 | 0.01 | 74 | 1009.2 |
| 20260508012046 | 51 | 104 | 0.0 | 0.0 | 0.00 | 0.01 | 0.01 | 72 | 1009.1 |
| 20260508011544 | 51 | 105 | 0.0 | 0.0 | 0.00 | 0.01 | 0.01 | 74 | 1009.1 |
| 20260508011041 | 51 | 113 | 0.0 | 0.0 | 0.00 | 0.01 | 0.01 | 74 | 1009.3 |
| 20260508010538 | 52 | 94 | 0.0 | 0.0 | 0.00 | 0.01 | 0.01 | 72 | 1009.1 |
| 20260508010035 | 52 | 94 | 0.0 | 0.0 | 0.00 | 0.01 | 0.01 | 71 | 1009.0 |
| 20260508005532 | 53 | 94 | 0.0 | 0.0 | 0.00 | 0.01 | 0.01 | 70 | 1009.1 |
| 20260508005029 | 53 | 94 | 0.0 | 0.0 | 0.00 | 0.01 | 0.01 | 68 | 1008.9 |
| 20260508004524 | 54 | 93 | 0.0 | 0.0 | 0.00 | 0.01 | 0.01 | 68 | 1008.8 |
| 20260508004021 | 54 | 92 | 0.0 | 0.0 | 0.00 | 0.01 | 0.01 | 67 | 1008.9 |
| 20260508003518 | 55 | 92 | 0.0 | 0.0 | 0.00 | 0.01 | 0.01 | 65 | 1008.9 |
| 20260508003016 | 56 | 92 | 0.0 | 0.0 | 0.00 | 0.01 | 0.01 | 65 | 1008.9 |
| 20260508002511 | 56 | 92 | 0.0 | 0.0 | 0.00 | 0.01 | 0.01 | 61 | 1009.0 |
| 20260508002009 | 56 | 92 | 0.0 | 0.0 | 0.00 | 0.01 | 0.01 | 63 | 1008.9 |
| 20260508001505 | 57 | 80 | 0.0 | 0.0 | 0.00 | 0.01 | 0.01 | 61 | 1008.9 |
| 20260508001001 | 57 | 80 | 0.0 | 0.0 | 0.00 | 0.01 | 0.01 | 60 | 1008.8 |
| 20260508000457 | 58 | 98 | 0.0 | 0.0 | 0.00 | 0.01 | 0.01 | 59 | 1009.0 |
| 20260507235954 | 58 | 102 | 1.0 | 2.0 | 0.00 | 0.01 | 0.01 | 58 | 1008.9 |
| 20260507235451 | 58 | 102 | 1.0 | 1.0 | 0.00 | 0.01 | 0.01 | 57 | 1008.8 |
| 20260507234949 | 58 | 111 | 1.0 | 2.0 | 0.00 | 0.01 | 0.01 | 59 | 1008.7 |
| 20260507234445 | 58 | 86 | 1.0 | 1.0 | 0.00 | 0.01 | 0.01 | 60 | 1008.8 |
| 20260507233941 | 58 | 167 | 1.0 | 1.0 | 0.00 | 0.01 | 0.01 | 59 | 1008.7 |
| 20260507233438 | 57 | 110 | 1.0 | 3.0 | 0.00 | 0.01 | 0.01 | 64 | 1008.9 |
| 20260507232937 | 56 | 69 | 1.0 | 1.0 | 0.00 | 0.01 | 0.01 | 63 | 1009.0 |
| 20260507232433 | 56 | 327 | 1.0 | 2.0 | 0.00 | 0.01 | 0.01 | 62 | 1008.9 |
| 20260507231930 | 56 | 62 | 0.0 | 2.0 | 0.00 | 0.01 | 0.01 | 63 | 1009.0 |
| 20260507231426 | 57 | 98 | 1.0 | 2.0 | 0.00 | 0.01 | 0.01 | 61 | 1008.8 |
| 20260507230923 | 57 | 280 | 2.0 | 2.0 | 0.00 | 0.01 | 0.01 | 62 | 1009.0 |
| 20260507230421 | 57 | 97 | 0.0 | 1.0 | 0.00 | 0.01 | 0.01 | 62 | 1009.2 |
| 20260507225921 | 56 | 95 | 0.0 | 1.0 | 0.00 | 0.01 | 0.01 | 64 | 1009.3 |
| 20260507225417 | 56 | 138 | 1.0 | 1.0 | 0.00 | 0.01 | 0.01 | 67 | 1009.3 |
| 20260507224913 | 56 | 355 | 1.0 | 2.0 | 0.00 | 0.01 | 0.01 | 68 | 1009.6 |
| 20260507224409 | 56 | 96 | 0.0 | 1.0 | 0.00 | 0.01 | 0.01 | 72 | 1009.7 |
| 20260507223906 | 56 | 61 | 0.0 | 1.0 | 0.00 | 0.01 | 0.01 | 72 | 1009.3 |
| 20260507223402 | 55 | 92 | 0.0 | 1.0 | 0.00 | 0.01 | 0.01 | 71 | 1009.6 |
| 20260507222859 | 56 | 73 | 1.0 | 1.0 | 0.00 | 0.01 | 0.01 | 70 | 1009.7 |
| 20260507222356 | 56 | 110 | 0.0 | 1.0 | 0.00 | 0.01 | 0.01 | 70 | 1009.6 |
| 20260507221853 | 56 | 91 | 0.0 | 0.0 | 0.00 | 0.01 | 0.01 | 70 | 1009.4 |
| 20260507221349 | 55 | 85 | 0.0 | 0.0 | 0.00 | 0.01 | 0.01 | 71 | 1009.6 |
| 20260507220845 | 56 | 81 | 0.0 | 1.0 | 0.00 | 0.01 | 0.01 | 69 | 1009.6 |
| 20260507220344 | 56 | 90 | 0.0 | 1.0 | 0.00 | 0.01 | 0.01 | 74 | 1009.8 |
| 20260507215839 | 55 | 97 | 0.0 | 1.0 | 0.00 | 0.01 | 0.01 | 75 | 1009.8 |
| 20260507215337 | 54 | 104 | 1.0 | 2.0 | 0.07 | 0.01 | 0.01 | 78 | 1009.5 |
| 20260507214834 | 53 | 75 | 1.0 | 6.0 | 0.07 | 0.01 | 0.01 | 76 | 1009.8 |
| 20260507214332 | 54 | 64 | 3.0 | 3.0 | 0.00 | 0.00 | 0.00 | 68 | 1009.9 |
| 20260507213826 | 55 | 43 | 2.0 | 6.0 | 0.00 | 0.00 | 0.00 | 60 | 1009.5 |
| 20260507213323 | 57 | 171 | 2.0 | 3.0 | 0.00 | 0.00 | 0.00 | 59 | 1009.5 |
| 20260507212820 | 58 | 117 | 3.0 | 3.0 | 0.00 | 0.00 | 0.00 | 60 | 1009.4 |
| 20260507212316 | 58 | 322 | 3.0 | 5.0 | 0.00 | 0.00 | 0.00 | 57 | 1009.2 |
| 20260507211813 | 59 | 206 | 2.0 | 8.0 | 0.00 | 0.00 | 0.00 | 55 | 1009.1 |
| 20260507211310 | 60 | 145 | 4.0 | 8.0 | 0.00 | 0.00 | 0.00 | 53 | 1009.2 |
| 20260507210806 | 60 | 262 | 3.0 | 6.0 | 0.00 | 0.00 | 0.00 | 51 | 1009.0 |
| 20260507210303 | 60 | 246 | 4.0 | 9.0 | 0.00 | 0.00 | 0.00 | 51 | 1008.9 |
| 20260507205759 | 62 | 38 | 2.0 | 9.0 | 0.00 | 0.00 | 0.00 | 51 | 1009.1 |
| 20260507205257 | 61 | 207 | 3.0 | 7.0 | 0.00 | 0.00 | 0.00 | 51 | 1009.2 |
| 20260507204752 | 62 | 287 | 4.0 | 7.0 | 0.00 | 0.00 | 0.00 | 48 | 1009.3 |
| 20260507204251 | 62 | 211 | 4.0 | 11.0 | 0.00 | 0.00 | 0.00 | 50 | 1009.2 |
| 20260507203748 | 62 | 163 | 3.0 | 8.0 | 0.00 | 0.00 | 0.00 | 50 | 1009.5 |
| 20260507203245 | 62 | 117 | 2.0 | 10.0 | 0.00 | 0.00 | 0.00 | 53 | 1009.4 |
| 20260507202742 | 61 | 183 | 3.0 | 10.0 | 0.00 | 0.00 | 0.00 | 54 | 1009.4 |
| 20260507202238 | 60 | 184 | 4.0 | 11.0 | 0.00 | 0.00 | 0.00 | 54 | 1009.6 |
| 20260507201732 | 60 | 308 | 4.0 | 7.0 | 0.00 | 0.00 | 0.00 | 55 | 1009.7 |
| 20260507201230 | 60 | 189 | 5.0 | 7.0 | 0.00 | 0.00 | 0.00 | 56 | 1009.7 |
| 20260507200726 | 60 | 266 | 4.0 | 14.0 | 0.00 | 0.00 | 0.00 | 53 | 1009.9 |
| 20260507200222 | 60 | 165 | 5.0 | 13.0 | 0.00 | 0.00 | 0.00 | 54 | 1010.0 |
| 20260507195719 | 60 | 121 | 6.0 | 9.0 | 0.00 | 0.00 | 0.00 | 54 | 1009.8 |
| 20260507195216 | 59 | 156 | 4.0 | 9.0 | 0.00 | 0.00 | 0.00 | 57 | 1010.0 |
| 20260507194713 | 59 | 186 | 5.0 | 8.0 | 0.00 | 0.00 | 0.00 | 55 | 1010.1 |
| 20260507194209 | 60 | 50 | 2.0 | 6.0 | 0.00 | 0.00 | 0.00 | 57 | 1010.4 |
| 20260507193706 | 60 | 204 | 3.0 | 8.0 | 0.00 | 0.00 | 0.00 | 57 | 1010.6 |
| 20260507193203 | 60 | 167 | 5.0 | 10.0 | 0.00 | 0.00 | 0.00 | 57 | 1010.5 |
| 20260507192658 | 59 | 171 | 4.0 | 10.0 | 0.00 | 0.00 | 0.00 | 56 | 1010.5 |
| 20260507192156 | 59 | 239 | 5.0 | 13.0 | 0.00 | 0.00 | 0.00 | 57 | 1010.8 |
| 20260507191651 | 58 | 178 | 4.0 | 15.0 | 0.00 | 0.00 | 0.00 | 58 | 1010.9 |
| 20260507191148 | 57 | 138 | 9.0 | 14.0 | 0.00 | 0.00 | 0.00 | 59 | 1010.8 |
| 20260507190645 | 57 | 163 | 5.0 | 15.0 | 0.00 | 0.00 | 0.00 | 57 | 1010.7 |
| 20260507190144 | 57 | 93 | 3.0 | 10.0 | 0.00 | 0.00 | 0.00 | 57 | 1011.1 |
| 20260507185642 | 56 | 285 | 6.0 | 14.0 | 0.00 | 0.00 | 0.00 | 57 | 1011.2 |
| 20260507185138 | 57 | 174 | 5.0 | 10.0 | 0.00 | 0.00 | 0.00 | 57 | 1011.2 |
| 20260507184636 | 59 | 139 | 2.0 | 13.0 | 0.00 | 0.00 | 0.00 | 56 | 1011.1 |
| 20260507184134 | 57 | 323 | 6.0 | 14.0 | 0.00 | 0.00 | 0.00 | 54 | 1011.1 |
| 20260507183630 | 59 | 236 | 5.0 | 13.0 | 0.00 | 0.00 | 0.00 | 51 | 1011.1 |
| 20260507183127 | 59 | 88 | 3.0 | 9.0 | 0.00 | 0.00 | 0.00 | 49 | 1011.3 |
| 20260507182624 | 59 | 247 | 6.0 | 13.0 | 0.00 | 0.00 | 0.00 | 48 | 1011.2 |
| 20260507182120 | 60 | 264 | 5.0 | 11.0 | 0.00 | 0.00 | 0.00 | 46 | 1011.2 |
| 20260507181616 | 59 | 269 | 3.0 | 8.0 | 0.00 | 0.00 | 0.00 | 46 | 1011.4 |
| 20260507181113 | 59 | 265 | 6.0 | 11.0 | 0.00 | 0.00 | 0.00 | 45 | 1011.3 |
| 20260507180609 | 59 | 162 | 2.0 | 9.0 | 0.00 | 0.00 | 0.00 | 48 | 1011.3 |
| 20260507180107 | 59 | 255 | 6.0 | 9.0 | 0.00 | 0.00 | 0.00 | 46 | 1011.3 |
| 20260507175602 | 59 | 263 | 3.0 | 9.0 | 0.00 | 0.00 | 0.00 | 48 | 1011.4 |
| 20260507175100 | 59 | 257 | 3.0 | 14.0 | 0.00 | 0.00 | 0.00 | 45 | 1011.6 |
| 20260507174557 | 60 | 264 | 7.0 | 11.0 | 0.00 | 0.00 | 0.00 | 41 | 1011.4 |
| 20260507174055 | 59 | 141 | 6.0 | 9.0 | 0.00 | 0.00 | 0.00 | 43 | 1011.8 |
| 20260507173552 | 60 | 245 | 5.0 | 9.0 | 0.00 | 0.00 | 0.00 | 43 | 1011.5 |
| 20260507173049 | 61 | 143 | 5.0 | 9.0 | 0.00 | 0.00 | 0.00 | 41 | 1011.8 |
| 20260507172544 | 60 | 176 | 3.0 | 6.0 | 0.00 | 0.00 | 0.00 | 43 | 1011.6 |
| 20260507172042 | 59 | 307 | 3.0 | 11.0 | 0.00 | 0.00 | 0.00 | 43 | 1012.1 |
| 20260507171537 | 59 | 111 | 2.0 | 3.0 | 0.00 | 0.00 | 0.00 | 46 | 1012.4 |
| 20260507171034 | 58 | 219 | 3.0 | 5.0 | 0.00 | 0.00 | 0.00 | 44 | 1012.3 |
| 20260507170531 | 58 | 223 | 3.0 | 6.0 | 0.00 | 0.00 | 0.00 | 45 | 1012.8 |